Flag for Canada Weather past 2 weeks in Prince George, British Columbia, Canada

Now
19 °F

Scattered clouds.


Feels Like: 4 °F
Forecast: 6 / 27 °F
Wind: 18 mph from North

Location: Prince George

Current Time: Dec 28, 2014 at 11:33:26 AM

Latest Report: Dec 28, 2014 at 11:00 AM


Visibility: 9 mi

Pressure: 30.43 "Hg

Humidity: 86%

Dew point: 16 °F

Location of Prince GeorgeLocation

Historic Weather in Prince George — Graph

°F

Prince George temperature yesterday

Maximum temperature yesterday: 30 °F (at 12:03 AM)
Minimum temperature yesterday: 27 °F (at 8:57 PM)
Average temperature yesterday: 29 °F

Past Weeks' High & Low Weather Summary

 TemperatureHumidityPressure
High41 °F (Dec 20, 7:00 AM)100% (Dec 13, 10:00 AM)30.41 "Hg (Dec 13, 10:00 AM)
Low16 °F (Dec 16, 4:00 AM)57% (Dec 20, 7:00 AM)29.26 "Hg (Dec 21, 12:03 AM)
Average29 °F92%29.94 "Hg
* Reported Dec 13 10:00 AM — Dec 28 10:00 AM, Prince George, Weather by CustomWeather, © 2014

Note: Actual official high and low records may vary slightly from our data, if they occured in-between our weather recording intervals... More about our weather records

Advertising

Prince George weather history for previous 24 hours

 ConditionsComfort  
Time TempWeatherWind HumidityBarometerVisibility
10:00 AM
Dec 28
19 °FScattered clouds.14 mph79%30.41 "Hg9 mi
9:00 AM19 °FPassing clouds.16 mph79%30.38 "Hg9 mi
8:00 AM19 °FOvercast.17 mph86%30.34 "Hg9 mi
7:51 AM19 °FOvercast.16 mph86%30.34 "Hg9 mi
7:00 AM21 °FLight snow. Overcast.17 mph86%30.33 "Hg4 mi
6:49 AM21 °FLight snow. Overcast.16 mph86%30.33 "Hg3 mi
6:00 AM21 °FLight snow. Overcast.20 mph93%30.31 "Hg1 mi
5:00 AM23 °FLight snow. Low clouds.16 mph93%30.29 "Hg1 mi
4:00 AM23 °FLight snow. Overcast.16 mph93%30.27 "Hg1 mi
3:58 AM23 °FLight snow. Overcast.15 mph93%30.26 "Hg2 mi
3:00 AM25 °FLight snow. Overcast.13 mph86%30.23 "Hg9 mi
2:00 AM25 °FLight snow. Overcast.9 mph86%30.20 "Hg9 mi
1:00 AM27 °FLight snow. Mostly cloudy.10 mph86%30.16 "Hg9 mi
12:00 AM27 °FLight snow. Mostly cloudy.7 mph93%30.14 "Hg9 mi
11:00 PM
Dec 27
27 °FLight snow. Mostly cloudy.7 mph93%30.12 "Hg9 mi
10:53 PM27 °FLight snow. Mostly cloudy.9 mph93%30.12 "Hg9 mi
10:00 PM27 °FLight snow. Overcast.6 mph93%30.09 "Hg9 mi
9:48 PM27 °FLight snow. Overcast.7 mph93%30.09 "Hg6 mi
9:00 PM27 °FLight snow. Overcast.10 mph100%30.07 "Hg2 mi
8:57 PM27 °FLight snow. Overcast.9 mph100%30.07 "Hg2 mi
8:03 PM28 °FLight snow. Low clouds.9 mph93%30.04 "Hg2 mi
7:00 PM30 °FLight snow. Low clouds.8 mph93%30.01 "Hg1 mi
6:00 PM30 °FLight snow. Low clouds.9 mph93%29.98 "Hg1 mi
5:59 PM30 °FLight snow. Low clouds.9 mph93%29.98 "Hg2 mi
5:02 PM30 °FLight snow. Mostly cloudy.9 mph100%29.96 "Hg1 mi
4:00 PM30 °FLight snow. Mostly cloudy.3 mph100%29.94 "Hg1 mi
3:00 PM30 °FLight snow. Mostly cloudy.9 mph93%29.91 "Hg2 mi
2:02 PM30 °FLight snow. Mostly cloudy.10 mph93%29.90 "Hg9 mi
1:00 PM30 °FLight snow. Overcast.14 mph93%29.88 "Hg9 mi
12:00 PM30 °FLight snow. More clouds than sun.12 mph93%29.89 "Hg1 mi
11:03 AM30 °FLight snow. More clouds than sun.15 mph93%29.89 "Hg2 mi
Weather by CustomWeather, © 2014

See weather overviewHow to use our weather pages